Location: Unspecified
(0.0000°N, 0.0000°E)
Time: 15:30:16
(UTC+00:00)

deb Explorer IX - Visible Passes

Search period start: 12 April 2021 00:00
Search period end: 22 April 2021 00:00
Orbit: 539 x 1100 km, 38.8° (Epoch: 11 April)

Date Brightness Start Highest point End Pass type
(mag) Time Alt. Az. Time Alt. Az. Time Alt. Az.
12 Apr ? 05:24:22 10° SSW 05:27:50 27° SE 05:31:27 10° E visible
12 Apr ? 19:53:16 10° W 19:57:36 17° SW 20:01:17 11° S visible
13 Apr ? 05:00:46 10° SSW 05:04:13 26° SE 05:07:45 10° E visible
13 Apr ? 19:29:17 10° W 19:33:46 18° SW 19:38:02 10° S visible
14 Apr ? 04:38:21 17° S 04:40:35 26° SE 04:44:05 10° E visible
14 Apr ? 19:05:19 10° W 19:09:56 18° SW 19:14:21 10° S visible
15 Apr ? 04:16:31 26° SSE 04:16:58 27° SE 04:20:26 10° E visible
15 Apr ? 18:41:22 10° W 18:46:04 18° SW 18:50:38 10° S visible
16 Apr ? 03:54:40 22° ESE 03:54:40 22° ESE 03:56:49 10° E visible
16 Apr ? 05:36:40 10° W 05:39:55 23° NW 05:43:15 10° NNE visible
16 Apr ? 18:17:27 10° W 18:22:13 19° SW 18:26:54 10° S visible
17 Apr ? 03:32:45 12° E 03:32:45 12° E 03:33:13 10° E visible
17 Apr ? 05:14:02 15° W 05:16:18 22° NW 05:19:34 10° NNE visible
18 Apr ? 04:52:05 21° NW 04:52:41 22° NW 04:55:54 10° NNE visible
19 Apr ? 04:30:03 20° NNW 04:30:03 20° NNW 04:32:16 10° NNE visible
20 Apr ? 04:07:57 13° N 04:07:57 13° N 04:08:39 10° NNE visible
